TimePDT,TemperatureF,Dew PointF,Humidity,Sea Level PressureIn,VisibilityMPH,Wind Direction,Wind SpeedMPH,Gust SpeedMPH,PrecipitationIn,Events,Conditions,WindDirDegrees,DateUTC
12:53 AM,59.0,34.0,39,30.01,10.0,Variable,4.6,-,N/A,,Clear,0,2013-04-26 07:53:00
1:53 AM,59.0,35.1,41,30.02,10.0,Variable,5.8,-,N/A,,Clear,0,2013-04-26 08:53:00
2:53 AM,53.1,35.1,50,30.05,10.0,WSW,3.5,-,N/A,,Clear,250,2013-04-26 09:53:00
3:53 AM,55.0,36.0,49,30.06,10.0,WNW,5.8,-,N/A,,Clear,300,2013-04-26 10:53:00
4:53 AM,52.0,37.0,57,30.07,10.0,WNW,4.6,-,N/A,,Clear,290,2013-04-26 11:53:00
5:53 AM,51.1,37.0,59,30.08,10.0,Calm,Calm,-,N/A,,Clear,0,2013-04-26 12:53:00
6:53 AM,52.0,37.0,57,30.09,10.0,Calm,Calm,-,N/A,,Clear,0,2013-04-26 13:53:00
7:53 AM,57.0,39.0,51,30.11,10.0,Calm,Calm,-,N/A,,Clear,0,2013-04-26 14:53:00
8:53 AM,62.1,39.0,43,30.12,10.0,Variable,3.5,-,N/A,,Clear,0,2013-04-26 15:53:00
9:53 AM,66.9,37.9,34,30.12,10.0,SW,5.8,-,N/A,,Clear,220,2013-04-26 16:53:00
10:53 AM,70.0,37.9,31,30.12,10.0,SW,6.9,-,N/A,,Clear,220,2013-04-26 17:53:00
11:53 AM,73.0,37.0,27,30.12,10.0,SSW,12.7,18.4,N/A,,Clear,210,2013-04-26 18:53:00
12:53 PM,75.0,36.0,24,30.11,10.0,SW,9.2,-,N/A,,Clear,230,2013-04-26 19:53:00
1:53 PM,78.1,34.0,20,30.09,10.0,SSW,16.1,21.9,N/A,,Clear,200,2013-04-26 20:53:00
2:53 PM,79.0,28.9,16,30.09,10.0,SSW,9.2,18.4,N/A,,Clear,210,2013-04-26 21:53:00
3:53 PM,80.1,26.1,14,30.08,10.0,Variable,4.6,-,N/A,,Clear,0,2013-04-26 22:53:00
4:53 PM,79.0,26.1,14,30.08,10.0,WNW,6.9,-,N/A,,Clear,290,2013-04-26 23:53:00
5:53 PM,79.0,24.1,13,30.07,10.0,WNW,17.3,-,N/A,,Clear,300,2013-04-27 00:53:00
6:53 PM,77.0,25.0,15,30.06,10.0,WNW,12.7,-,N/A,,Clear,290,2013-04-27 01:53:00
7:53 PM,71.1,28.9,21,30.06,10.0,WNW,5.8,-,N/A,,Clear,290,2013-04-27 02:53:00
8:53 PM,71.1,21.9,16,30.08,10.0,West,12.7,-,N/A,,Clear,270,2013-04-27 03:53:00
9:53 PM,68.0,21.9,17,30.09,10.0,WNW,11.5,-,N/A,,Clear,300,2013-04-27 04:53:00
10:53 PM,66.9,19.9,17,30.08,10.0,West,6.9,17.3,N/A,,Clear,280,2013-04-27 05:53:00
11:53 PM,64.9,19.9,18,30.08,10.0,WNW,5.8,-,N/A,,Clear,290,2013-04-27 06:53:00